timestamp,wind_dir_avg,wind_spd_avg,wind_spd_max_dir,wind_spd_gust,battery_voltage,lat,long
2020-08-27 00:04:01+00:00,,,,,12.97,47.59359,-54.27349
2020-08-27 00:14:01+00:00,,,,,12.65,47.59359,-54.27349
2020-08-27 00:24:01+00:00,,,,,12.65,47.59359,-54.27349
2020-08-27 00:34:01+00:00,,,,,12.65,47.59359,-54.27349
2020-08-27 00:44:01+00:00,,,,,12.65,47.59359,-54.27349
2020-08-27 00:54:01+00:00,,,,,12.65,47.59359,-54.27349
2020-08-27 01:04:01+00:00,,,,,12.65,47.59359,-54.27349
2020-08-27 01:14:01+00:00,,,,,12.65,47.59359,-54.27349
2020-08-27 01:24:01+00:00,,,,,12.65,47.59359,-54.27349
2020-08-27 01:34:01+00:00,,,,,12.65,47.59359,-54.27349
2020-08-27 01:44:01+00:00,,,,,12.65,47.59359,-54.27349
2020-08-27 01:54:01+00:00,,,,,12.65,47.59359,-54.27349
2020-08-27 02:04:01+00:00,,,,,12.65,47.59359,-54.27349
2020-08-27 02:14:01+00:00,,,,,12.65,47.59359,-54.27349
2020-08-27 02:24:01+00:00,,,,,12.65,47.59359,-54.27349
2020-08-27 02:34:01+00:00,,,,,12.65,47.59359,-54.27349
2020-08-27 02:44:01+00:00,,,,,12.65,47.59359,-54.27349
2020-08-27 02:54:01+00:00,,,,,12.65,47.59359,-54.27349
2020-08-27 03:04:01+00:00,,,,,12.65,47.59359,-54.27349
2020-08-27 03:14:01+00:00,,,,,12.65,47.59359,-54.27349
2020-08-27 03:24:01+00:00,,,,,12.65,47.59359,-54.27349
2020-08-27 03:34:01+00:00,,,,,12.65,47.59359,-54.27349
2020-08-27 03:44:01+00:00,,,,,12.65,47.59359,-54.27349
2020-08-27 03:54:01+00:00,,,,,12.65,47.59359,-54.27349
2020-08-27 04:04:01+00:00,,,,,12.65,47.59359,-54.27349
2020-08-27 04:14:01+00:00,,,,,12.65,47.59359,-54.27349
2020-08-27 04:24:01+00:00,,,,,12.65,47.59359,-54.27349
2020-08-27 04:34:01+00:00,,,,,12.65,47.59359,-54.27349
2020-08-27 04:44:01+00:00,,,,,12.65,47.59359,-54.27349
2020-08-27 04:54:01+00:00,,,,,12.65,47.59359,-54.27349
2020-08-27 05:04:01+00:00,,,,,12.65,47.59359,-54.27349
2020-08-27 05:14:01+00:00,,,,,12.57,47.59359,-54.27349
2020-08-27 05:24:01+00:00,,,,,12.57,47.59359,-54.27349
2020-08-27 05:34:01+00:00,,,,,12.57,47.59359,-54.27349
2020-08-27 05:44:01+00:00,,,,,12.57,47.59359,-54.27349
2020-08-27 05:54:01+00:00,,,,,12.57,47.59359,-54.27349
2020-08-27 06:04:01+00:00,,,,,12.57,47.59359,-54.27349
2020-08-27 06:14:01+00:00,,,,,12.57,47.59359,-54.27349
2020-08-27 06:24:01+00:00,,,,,12.57,47.59359,-54.27349
2020-08-27 06:34:01+00:00,,,,,12.57,47.59359,-54.27349
2020-08-27 06:44:01+00:00,,,,,12.57,47.59359,-54.27349
2020-08-27 06:54:01+00:00,,,,,12.57,47.59359,-54.27349
2020-08-27 07:04:01+00:00,,,,,12.57,47.59359,-54.27349
2020-08-27 07:14:01+00:00,,,,,12.57,47.59359,-54.27349
2020-08-27 07:24:01+00:00,,,,,12.57,47.59359,-54.27349
2020-08-27 07:34:01+00:00,,,,,12.57,47.59359,-54.27349
2020-08-27 07:44:01+00:00,,,,,12.57,47.59359,-54.27349
2020-08-27 07:54:01+00:00,,,,,12.57,47.59359,-54.27349
2020-08-27 08:04:01+00:00,,,,,12.57,47.59359,-54.27349
2020-08-27 08:14:01+00:00,,,,,12.49,47.59359,-54.27349
2020-08-27 08:24:01+00:00,,,,,12.49,47.59359,-54.27349
2020-08-27 08:34:01+00:00,,,,,12.49,47.59359,-54.27349
2020-08-27 08:44:01+00:00,,,,,12.49,47.59359,-54.27349
2020-08-27 08:54:01+00:00,,,,,12.49,47.59359,-54.27349
2020-08-27 09:04:01+00:00,,,,,12.49,47.59359,-54.27349
2020-08-27 09:14:01+00:00,,,,,12.49,47.59359,-54.27349
2020-08-27 09:24:01+00:00,,,,,12.49,47.59359,-54.27349
2020-08-27 09:34:01+00:00,,,,,12.49,47.59359,-54.27349
2020-08-27 09:44:01+00:00,,,,,12.49,47.59359,-54.27349
2020-08-27 09:54:01+00:00,,,,,12.49,47.59359,-54.27349
2020-08-27 10:04:01+00:00,,,,,12.49,47.59359,-54.27349
2020-08-27 10:14:01+00:00,,,,,13.53,47.59359,-54.27349
2020-08-27 10:24:01+00:00,,,,,13.53,47.59359,-54.27349
2020-08-27 10:34:01+00:00,,,,,13.53,47.59359,-54.27349
2020-08-27 10:44:01+00:00,,,,,13.53,47.59359,-54.27349
2020-08-27 10:54:01+00:00,,,,,13.53,47.59359,-54.27349
2020-08-27 11:04:01+00:00,,,,,13.53,47.59359,-54.27349
2020-08-27 11:14:01+00:00,,,,,13.92,47.59359,-54.27349
2020-08-27 11:24:01+00:00,,,,,13.92,47.59359,-54.27349
2020-08-27 11:34:01+00:00,,,,,13.92,47.59359,-54.27349
2020-08-27 11:44:01+00:00,,,,,13.92,47.59359,-54.27349
2020-08-27 11:54:01+00:00,,,,,13.92,47.59359,-54.27349
2020-08-27 12:04:01+00:00,,,,,13.92,47.59359,-54.27349
2020-08-27 12:14:01+00:00,,,,,14.0,47.59359,-54.27349
2020-08-27 12:24:01+00:00,,,,,14.0,47.59359,-54.27349
2020-08-27 12:34:01+00:00,,,,,14.0,47.59359,-54.27349
2020-08-27 12:44:01+00:00,,,,,14.0,47.59359,-54.27349
2020-08-27 12:54:01+00:00,,,,,14.0,47.59359,-54.27349
2020-08-27 13:04:01+00:00,,,,,14.0,47.59359,-54.27349
2020-08-27 13:14:01+00:00,,,,,14.16,47.59359,-54.27349
2020-08-27 13:24:01+00:00,,,,,14.16,47.59359,-54.27349
2020-08-27 13:34:01+00:00,,,,,14.16,47.59359,-54.27349
2020-08-27 13:44:01+00:00,,,,,14.16,47.59359,-54.27349
2020-08-27 13:54:01+00:00,,,,,14.16,47.59359,-54.27349
2020-08-27 14:04:01+00:00,,,,,14.16,47.59359,-54.27349
2020-08-27 14:14:01+00:00,,,,,14.08,47.59359,-54.27349
2020-08-27 14:24:01+00:00,,,,,14.08,47.59359,-54.27349
2020-08-27 14:34:01+00:00,,,,,14.08,47.59359,-54.27349
2020-08-27 14:44:01+00:00,,,,,14.08,47.59359,-54.27349
2020-08-27 14:54:01+00:00,,,,,14.08,47.59359,-54.27349
2020-08-27 15:04:01+00:00,,,,,14.08,47.59359,-54.27349
2020-08-27 15:14:01+00:00,,,,,14.24,47.59359,-54.27349
2020-08-27 15:24:01+00:00,,,,,14.24,47.59359,-54.27349
2020-08-27 15:34:01+00:00,,,,,14.24,47.59359,-54.27349
2020-08-27 15:44:01+00:00,,,,,14.24,47.59359,-54.27349
2020-08-27 15:54:01+00:00,,,,,14.24,47.59359,-54.27349
2020-08-27 16:04:01+00:00,,,,,14.24,47.59359,-54.27349
2020-08-27 16:14:01+00:00,,,,,14.16,47.59359,-54.27349
2020-08-27 16:24:01+00:00,,,,,14.16,47.59359,-54.27349
2020-08-27 16:34:01+00:00,,,,,14.16,47.59359,-54.27349
2020-08-27 16:44:01+00:00,,,,,14.16,47.59359,-54.27349
2020-08-27 16:54:01+00:00,,,,,14.16,47.59359,-54.27349
2020-08-27 17:04:01+00:00,,,,,14.16,47.59359,-54.27349
2020-08-27 17:14:01+00:00,,,,,14.32,47.59359,-54.27349
2020-08-27 17:24:01+00:00,,,,,14.32,47.59359,-54.27349
2020-08-27 17:34:01+00:00,,,,,14.32,47.59359,-54.27349
2020-08-27 17:44:01+00:00,,,,,14.32,47.59359,-54.27349
2020-08-27 17:54:01+00:00,,,,,14.32,47.59359,-54.27349
2020-08-27 18:04:01+00:00,,,,,14.32,47.59359,-54.27349
2020-08-27 18:14:01+00:00,,,,,14.08,47.59359,-54.27349
2020-08-27 18:24:01+00:00,,,,,14.08,47.59359,-54.27349
2020-08-27 18:34:01+00:00,,,,,14.08,47.59359,-54.27349
2020-08-27 18:44:01+00:00,,,,,14.08,47.59359,-54.27349
2020-08-27 18:54:01+00:00,,,,,14.08,47.59359,-54.27349
2020-08-27 19:04:01+00:00,,,,,14.08,47.59359,-54.27349
2020-08-27 19:14:01+00:00,,,,,13.76,47.59359,-54.27349
2020-08-27 19:24:01+00:00,,,,,13.76,47.59359,-54.27349
2020-08-27 19:34:01+00:00,,,,,13.76,47.59359,-54.27349
2020-08-27 19:44:01+00:00,,,,,13.76,47.59359,-54.27349
2020-08-27 19:54:01+00:00,,,,,13.76,47.59359,-54.27349
2020-08-27 20:04:01+00:00,,,,,13.76,47.59359,-54.27349
2020-08-27 20:14:01+00:00,,,,,13.84,47.59359,-54.27349
2020-08-27 20:24:01+00:00,,,,,13.84,47.59359,-54.27349
2020-08-27 20:34:01+00:00,,,,,13.84,47.59359,-54.27349
2020-08-27 20:44:01+00:00,,,,,13.84,47.59359,-54.27349
2020-08-27 20:54:01+00:00,,,,,13.84,47.59359,-54.27349
2020-08-27 21:04:01+00:00,,,,,13.84,47.59359,-54.27349
2020-08-27 21:14:01+00:00,,,,,13.6,47.59359,-54.27349
2020-08-27 21:24:01+00:00,,,,,13.6,47.59359,-54.27349
2020-08-27 21:34:01+00:00,,,,,13.6,47.59359,-54.27349
2020-08-27 21:44:01+00:00,,,,,13.6,47.59359,-54.27349
2020-08-27 21:54:01+00:00,,,,,13.6,47.59359,-54.27349
2020-08-27 22:04:01+00:00,,,,,13.6,47.59359,-54.27349
2020-08-27 22:14:01+00:00,,,,,13.37,47.59359,-54.27349
2020-08-27 22:24:01+00:00,,,,,13.37,47.59359,-54.27349
2020-08-27 22:34:01+00:00,,,,,13.37,47.59359,-54.27349
2020-08-27 22:44:01+00:00,,,,,13.37,47.59359,-54.27349
2020-08-27 22:54:01+00:00,,,,,13.37,47.59359,-54.27349
2020-08-27 23:04:01+00:00,,,,,13.37,47.59359,-54.27349
2020-08-27 23:14:01+00:00,,,,,12.97,47.59359,-54.27349
2020-08-27 23:24:01+00:00,,,,,12.97,47.59359,-54.27349
2020-08-27 23:34:01+00:00,,,,,12.97,47.59359,-54.27349
2020-08-27 23:44:01+00:00,,,,,12.97,47.59359,-54.27349
2020-08-27 23:54:01+00:00,,,,,12.97,47.59359,-54.27349
